Location: Izdebno
(52.6670°N, 16.2170°E)
Time: 12:51:32
(UTC+02:00)

A-11 Canister half - Pass Details

Date: 29 February 2024
Orbit: 1525 x 1683 km, 47.3° (Epoch: 24 April)

Event Time Altitude Azimuth Distance (km) Brightness Sun altitude
Rises 21:58:13 0° 257° (WSW) 4,756 11.9 -37.7°
Reaches altitude 10° 22:01:20 10° 254° (WSW) 3,753 11.2 -38.1°
Enters shadow 22:07:08 41° 238° (WSW) 2,108 9.6 -38.6°
